TimeEST,TemperatureF,Dew PointF,Humidity,Sea Level PressureIn,VisibilityMPH,Wind Direction,Wind SpeedMPH,Gust SpeedMPH,PrecipitationIn,Events,Conditions,WindDirDegrees,DateUTC
12:53 AM,71.1,69.1,93,30.03,9.0,Calm,Calm,-,N/A,,Overcast,0,2012-12-09 05:53:00
1:53 AM,71.1,69.1,93,30.04,9.0,Calm,Calm,-,0.00,Rain,Light Rain,0,2012-12-09 06:53:00
2:05 AM,69.8,68.0,94,30.04,10.0,West,6.9,-,0.00,,Overcast,270,2012-12-09 07:05:00
2:16 AM,69.8,68.0,94,30.05,2.0,WSW,6.9,-,0.04,Rain,Heavy Rain,240,2012-12-09 07:16:00
2:24 AM,69.8,66.2,88,30.05,1.8,WSW,10.4,-,0.13,Rain,Heavy Rain,240,2012-12-09 07:24:00
2:31 AM,69.8,66.2,88,30.04,1.8,West,12.7,-,0.24,Rain,Heavy Rain,270,2012-12-09 07:31:00
2:35 AM,69.8,66.2,88,30.04,3.0,WNW,10.4,-,0.25,Rain,Light Rain,290,2012-12-09 07:35:00
2:48 AM,69.8,66.2,88,30.03,10.0,WNW,6.9,-,0.26,Rain,Light Rain,290,2012-12-09 07:48:00
2:53 AM,69.1,66.9,93,30.04,10.0,WNW,5.8,-,0.26,Rain,Light Rain,290,2012-12-09 07:53:00
3:53 AM,68.0,68.0,100,30.03,10.0,Calm,Calm,-,0.01,,Overcast,0,2012-12-09 08:53:00
4:53 AM,68.0,66.9,96,30.03,10.0,Calm,Calm,-,N/A,,Mostly Cloudy,0,2012-12-09 09:53:00
5:03 AM,68.0,66.2,94,30.03,10.0,ENE,3.5,-,N/A,,Mostly Cloudy,70,2012-12-09 10:03:00
5:53 AM,66.9,66.0,97,30.04,10.0,ESE,4.6,-,N/A,,Mostly Cloudy,110,2012-12-09 10:53:00
6:06 AM,66.2,66.2,100,30.05,10.0,East,3.5,-,N/A,,Partly Cloudy,90,2012-12-09 11:06:00
6:53 AM,66.9,66.0,97,30.06,4.0,Calm,Calm,-,0.01,,Clear,0,2012-12-09 11:53:00
7:13 AM,64.4,64.4,100,30.06,5.0,Calm,Calm,-,N/A,,Clear,0,2012-12-09 12:13:00
7:20 AM,64.4,64.4,100,30.07,6.0,Calm,Calm,-,N/A,,Clear,0,2012-12-09 12:20:00
7:53 AM,68.0,68.0,100,30.08,6.0,Calm,Calm,-,N/A,,Clear,0,2012-12-09 12:53:00
8:53 AM,73.0,69.1,87,30.10,10.0,Calm,Calm,-,N/A,,Clear,0,2012-12-09 13:53:00
9:53 AM,75.9,69.1,79,30.10,10.0,Calm,Calm,-,N/A,,Clear,0,2012-12-09 14:53:00
10:53 AM,78.1,69.1,74,30.09,10.0,SW,4.6,-,N/A,,Clear,230,2012-12-09 15:53:00
11:53 AM,79.0,70.0,74,30.07,10.0,South,5.8,-,N/A,,Mostly Cloudy,190,2012-12-09 16:53:00
12:53 PM,80.1,71.1,74,30.04,10.0,East,6.9,-,N/A,,Mostly Cloudy,80,2012-12-09 17:53:00
1:27 PM,78.8,71.6,78,30.03,10.0,East,6.9,-,N/A,,Scattered Clouds,100,2012-12-09 18:27:00
1:53 PM,79.0,72.0,79,30.02,10.0,East,5.8,-,N/A,,Mostly Cloudy,90,2012-12-09 18:53:00
2:53 PM,78.1,71.1,79,30.02,10.0,ESE,5.8,-,N/A,,Scattered Clouds,120,2012-12-09 19:53:00
3:53 PM,77.0,71.1,82,30.01,10.0,ESE,6.9,-,N/A,,Scattered Clouds,110,2012-12-09 20:53:00
4:53 PM,75.9,71.1,85,30.02,10.0,ESE,5.8,-,N/A,,Clear,110,2012-12-09 21:53:00
5:53 PM,73.9,71.1,91,30.03,10.0,East,3.5,-,N/A,,Partly Cloudy,100,2012-12-09 22:53:00
6:53 PM,73.9,72.0,93,30.04,10.0,East,3.5,-,N/A,,Clear,100,2012-12-09 23:53:00
7:53 PM,73.9,71.1,91,30.04,10.0,East,3.5,-,N/A,,Clear,100,2012-12-10 00:53:00
8:53 PM,73.0,71.1,93,30.04,10.0,ESE,4.6,-,N/A,,Clear,110,2012-12-10 01:53:00
9:53 PM,69.1,69.1,100,30.05,1.8,Calm,Calm,-,N/A,,Clear,0,2012-12-10 02:53:00
10:15 PM,68.0,68.0,100,30.05,1.5,Calm,Calm,-,N/A,,Clear,0,2012-12-10 03:15:00
10:35 PM,71.6,69.8,94,30.05,3.0,SE,3.5,-,N/A,,Clear,130,2012-12-10 03:35:00
10:49 PM,69.8,69.8,100,30.04,1.8,Calm,Calm,-,N/A,,Clear,0,2012-12-10 03:49:00
10:51 PM,69.8,68.0,94,30.05,1.0,Calm,Calm,-,N/A,,Mist,0,2012-12-10 03:51:00
10:53 PM,68.0,66.9,96,30.04,0.8,Calm,Calm,-,N/A,,Mist,0,2012-12-10 03:53:00
11:06 PM,69.8,68.0,94,30.04,0.8,Calm,Calm,-,N/A,,Clear,0,2012-12-10 04:06:00
11:40 PM,66.2,66.2,100,30.03,6.0,Calm,Calm,-,N/A,,Clear,0,2012-12-10 04:40:00
11:53 PM,68.0,66.9,96,30.03,4.0,Calm,Calm,-,N/A,,Clear,0,2012-12-10 04:53:00